Torna al catalogo

CZ-3B DEB

LostGTO
NORAD 40168·DEBRIS·🇨🇳 China

Lanciato Sep 4, 2010 da Xichang Satellite Launch Center

Loading…

TLE

ObsoletoSource: Space-Track

Epoca: Jun 29, 2014, 23:49 UTC

1 40168U 10042V   14180.99290372 -.00000074  00000-0  68147-2 0  9991
2 40168  23.9952 170.6098 7306120 172.3245 213.3150  2.01116908 13743

Traccia CZ-3B DEB in tempo reale con AllMySat

Download on the App Store